Погода в Колодезях

Россия / Ростовская область     49°09′23″N   40°26′33″E
темп.,
°C
ветер,
м/с
пор.,
м/с
влажн.,
%
обл.,
%
осадки,
мм/ч
давл.,
гПа
погр.,
м
28 сентября, вт
вт2800:00+8с348752 0.0 101882
03:00+10ссз257880 0.0 1018263
06:00+10с258296 0.2 1019309
09:00+10ссв3481100 0.3 1020277
12:00+14ссв225991 0.4 10211039
15:00+13ссв335979 1.3 10221067
18:00+11св587084 0.1 1024485
21:00+10св5769100 0.1 1025699
29 сентября, ср
ср2900:00+9св5777100 0.0 1027481
03:00+8св478299 0.0 1028524
06:00+8св4777100 0.0 1028667
09:00+9св67565 0.0 10291063
12:00+12св56395 0.0 10291644
15:00+13св56345 0.0 10281779
18:00+10св47415 0.0 1029282
21:00+7св38512 0.0 1031189
30 сентября, чт
чт3000:00+6св36585 0.0 1031129
03:00+5ссв35632 0.0 1031104
06:00+4ссв34680 0.0 103286
09:00+9св45500 0.0 1033472
12:00+12св44373 0.0 10321454
15:00+13св44335 0.0 10311681
18:00+11св36435 0.0 1031137
21:00+8всв36525 0.0 1032113
1 октября, пт
пт100:00+7всв35585 0.0 1033103
03:00+6всв34635 0.0 103484
06:00+5всв33673 0.0 103453
09:00+9всв35483 0.0 1035426
12:00+13в45365 0.0 10341680
15:00+14всв55345 0.0 10331816
18:00+11в36435 0.0 1033111
21:00+9в34494 0.0 103461
2 октября, сб
сб200:00+8всв23554 0.0 103451
03:00+7всв22645 0.0 103427
06:00+6всв22715 0.0 103427
09:00+11в34559 0.0 1034400
12:00+15в464351 0.0 10321646
15:00+15всв564069 0.0 10311898
18:00+13всв585275 0.0 1031356
21:00+11в49615 0.0 1032406